Regional Weather Roundup
Issued by NWS

Home | Current Version | Previous Version | Text Only | Print | Product List | Glossary Off
Versions: 1 2 3 4 5 6 7 8 9 10 11 12 13 14 15 16 17 18 19 20 21 22 23 24 25 26 27 28 29 30 31 32 33 34 35 36 37 38 39 40 41 42 43 44 45 46 47 48 49 50

000
ASUS43 KLOT 241406
RWRIL

ILLINOIS REGIONAL WEATHER ROUNDUP
NATIONAL WEATHER SERVICE CHICAGO/ROMEOVILLE IL
900 AM CDT THU APR 24 2014

NOTE: "FAIR" INDICATES FEW OR NO CLOUDS BELOW 12,000 FEET WITH NO
SIGNIFICANT WEATHER AND/OR OBSTRUCTIONS TO VISIBILITY.

* THESE STATIONS ARE NOT UNDER NWS QUALITY CONTROL. THEY ALSO MAY NOT
  REPORT WEATHER SUCH AS PRECIPITATION OR FOG.

ILZ001-002-007-009-015-016-024-241500-
NORTHWEST ILLINOIS

CITY           SKY/WX    TMP DP  RH WIND       PRES   REMARKS
MOLINE         PTSUNNY   53  39  59 SE17      29.81F
STERLING*      CLOUDY    52  37  58 SE16G23   29.88F
SAVANNA*       CLOUDY    51  38  62 SE17G23   29.85F
$$

ILZ003-004-008-010-011-017-018-241500-
NORTH CENTRAL ILLINOIS

CITY           SKY/WX    TMP DP  RH WIND       PRES   REMARKS
ROCKFORD       CLOUDY    50  36  58 SE18G28   29.93F
FREEPORT*      CLOUDY    45  38  75 SE15G29   29.91F
ROCHELLE*      CLOUDY    51  38  61 SE20G29   29.91F
DE KALB*       CLOUDY    49  35  58 SE22G28   29.94F
PERU*          CLOUDY    54  38  54 SE20G28   29.90F
$$

ILZ005-006-012>014-019>023-241500-
NORTHEAST ILLINOIS

CITY           SKY/WX    TMP DP  RH WIND       PRES   REMARKS
CHICAGO-OHARE  CLOUDY    50  36  58 SE15      29.97F
CHICAGO-MIDWAY CLOUDY    52  37  56 SE15G22   29.98F
AURORA         CLOUDY    51  37  58 SE16      29.95F
LANSING*       CLOUDY    51  37  58 SE14      30.00F
JOLIET*        CLOUDY    51  38  60 SE17      29.95F
WAUKEGAN       CLOUDY    44  34  67 E10       29.99F
DUPAGE AIRPORT CLOUDY    51  36  56 SE17      29.95F
KANKAKEE*      CLOUDY    53  40  62 SE17G24   29.97F
WHEELING       CLOUDY    49  36  61 SE13      29.99F
MORRIS*        CLOUDY    54  34  47 SE21      29.94F
ROMEOVILLE*    CLOUDY    52  37  56 SE18G24   29.95F
NORTHERLY ISL    N/A     48  41  76 SE10        N/A
$$

LMZ740>746-241500-
SOUTHERN LAKE MICHIGAN

STATION/POSITION SKY/WX   TEMP    WIND        PRES    VSBY  WAVE
                          AIR SEA DIR/SP/G                  HT/PER
                          (F)     (DEG/KT/KT) (MB)    (MI)  (FT/S)
WAUKEGAN HARBOR            42     140/ 11/ 14 1017.3F
HARRISON CRIB              44     130/ 12/ 14   N/A
BURNHAM HARBOR             48     110/ 11       N/A
CALUMET HARBOR             52     140/ 13/ 23 1016.5F
MICHIGAN CITY              53     120/ 15/ 21   N/A
$$

ILZ025>027-034>036-040-047-049-050-058-095>099-241500-
WEST-CENTRAL ILLINOIS

CITY           SKY/WX    TMP DP  RH WIND       PRES   REMARKS
QUINCY         MOSUNNY   58  37  45 SE17G24   29.78F
GALESBURG*       N/A    N/A N/A N/A MISG        N/A
MACOMB*        PTSUNNY   57  34  41 SE18      29.85F
JACKSONVILLE*  PTSUNNY   56  37  47 SE16G24   29.85F
PITTSFIELD*    MOSUNNY   59  35  40 SE22      29.82F
$$

ILZ028>032-037-038-041>044-048-051>054-059>061-241500-
CENTRAL ILLINOIS

CITY           SKY/WX    TMP DP  RH WIND       PRES   REMARKS
PONTIAC        PTSUNNY   57  37  47 SE25G31   29.93F
BLOOMINGTON    PTSUNNY   55  34  45 SE25G33   29.92F
DECATUR        MOSUNNY   57  35  43 SE20G25   29.93F
PEORIA         PTSUNNY   57  35  43 SE18G24   29.88F
LACON*         CLOUDY    53  38  56 SE16G24   29.88F
LINCOLN*       MOSUNNY   58  35  40 SE20G28   29.90F
SPRINGFIELD    PTSUNNY   58  34  40 SE24G39   29.88F
TAYLORVILLE    PTSUNNY   55  34  44 SE20G26   29.90F
$$

ILZ033-039-045-046-055>057-062-063-241500-
EAST-CENTRAL ILLINOIS

CITY           SKY/WX    TMP DP  RH WIND       PRES   REMARKS
CHAMPAIGN      MOSUNNY   58  36  43 SE28      29.96F
RANTOUL*       MOSUNNY   58  34  40 SE24      29.97F
MATTOON        MOSUNNY   56  35  45 SE22G28   29.95F
PARIS*         MOSUNNY   56  38  50 SE15G21   30.00F
$$

ILZ079-100>102-241500-
SOUTHWEST ILLINOIS

CITY           SKY/WX    TMP DP  RH WIND       PRES   REMARKS
ALTON          PTSUNNY   57  39  51 SE18      29.88F
BELLEVILLE     MOSUNNY   58  40  49 SE14      29.88F
CAHOKIA*       MOSUNNY   59  39  47 SE15G23   29.85F
SPARTA*        SUNNY     55  39  54 SE14      29.90F
$$

ILZ064>066-069>071-074>076-080>082-084>086-088>090-092>094-241500-
SOUTH-CENTRAL ILLINOIS

CITY           SKY/WX    TMP DP  RH WIND       PRES   REMARKS
CARBONDALE     SUNNY     59  38  45 SE12      29.92F
CAIRO*         MOSUNNY   64  39  39 SE9       29.92F
MARION         PTSUNNY   61  37  41 SE15      29.93F
MT. VERNON     PTSUNNY   57  36  44 SE13      29.95F
CENTRALIA*     PTSUNNY   58  36  44 SE10G20   29.92F
SALEM*         PTSUNNY   59  39  48 SE9G18    29.94F
METROPOLIS*    MOSUNNY   59  35  40 SE7       29.93F
$$

ILZ067-068-072-073-078-083-087-091-241500-
SOUTHEAST ILLINOIS

CITY           SKY/WX    TMP DP  RH WIND       PRES   REMARKS
FLORA*         PTSUNNY   55  37  52 SE15      29.97F
FAIRFIELD*     PTSUNNY   57  41  54 SE12      29.97S
HARRISBURG*    MOSUNNY   58  40  51 E10       29.96F
ROBINSON*      PTSUNNY   57  40  53 SE14G20   30.01F
CARMI*         PTSUNNY   58  40  51 SE16      29.97F
$$

ABBREVIATIONS USED IN REMARKS
   TC - TEMPERATURE IN CELSIUS
  WCI - WIND CHILL INDEX
   HX - HEAT INDEX
  VSB - VISIBILITY
$$




USA.gov is the U.S. government's official web portal to all federal, state and local government web resources and services.